Time,TemperatureF,DewpointF,PressureIn,WindDirection,WindDirectionDegrees,WindSpeedMPH,WindSpeedGustMPH,Humidity,HourlyPrecipIn,Conditions,Clouds,dailyrainin,SoftwareType,DateUTC
2013-03-05 00:03:00,32.1,28.0,30.14,ENE,72,9.0,9.0,88,0.00,,,0.00,TxWx,2013-03-05 06:03:00,
2013-03-05 00:08:00,32.1,28.0,30.14,East,90,6.0,6.3,88,0.00,,,0.00,TxWx,2013-03-05 06:08:00,
2013-03-05 00:13:00,32.2,28.0,30.14,East,97,7.5,9.0,88,0.00,,,0.00,TxWx,2013-03-05 06:13:00,
2013-03-05 00:19:00,32.2,28.0,30.13,East,100,8.7,9.6,88,0.00,,,0.00,TxWx,2013-03-05 06:19:00,
2013-03-05 00:24:00,32.2,28.0,30.13,East,95,4.8,4.8,88,0.00,,,0.00,TxWx,2013-03-05 06:24:00,
2013-03-05 00:29:00,32.3,28.0,30.13,East,93,3.9,4.2,88,0.00,,,0.00,TxWx,2013-03-05 06:29:00,
2013-03-05 00:34:00,32.3,28.0,30.13,ENE,71,4.2,5.1,88,0.00,,,0.00,TxWx,2013-03-05 06:34:00,
2013-03-05 00:39:00,32.3,28.0,30.13,ENE,61,1.5,2.4,88,0.00,,,0.00,TxWx,2013-03-05 06:39:00,
2013-03-05 00:44:00,32.4,28.0,30.13,NE,51,3.6,3.9,88,0.00,,,0.00,TxWx,2013-03-05 06:44:00,
2013-03-05 00:50:00,32.4,28.0,30.13,ENE,68,5.7,6.6,88,0.00,,,0.00,TxWx,2013-03-05 06:50:00,
2013-03-05 00:55:00,32.4,28.0,30.13,East,93,4.5,4.8,88,0.00,,,0.00,TxWx,2013-03-05 06:55:00,
2013-03-05 01:00:00,32.4,28.0,30.13,ENE,62,9.6,9.6,88,0.00,,,0.00,TxWx,2013-03-05 07:00:00,
2013-03-05 01:06:00,32.4,28.0,30.13,East,82,7.5,7.5,88,0.00,,,0.00,TxWx,2013-03-05 07:06:00,
2013-03-05 01:11:00,32.3,28.0,30.13,ENE,77,9.0,9.0,88,0.00,,,0.00,TxWx,2013-03-05 07:11:00,
2013-03-05 01:16:00,32.3,28.0,30.13,ENE,64,2.7,3.0,89,0.00,,,0.00,TxWx,2013-03-05 07:16:00,
2013-03-05 01:21:00,32.2,28.0,30.13,NE,56,5.4,5.7,89,0.00,,,0.00,TxWx,2013-03-05 07:21:00,
2013-03-05 01:27:00,32.2,28.0,30.12,ENE,76,7.2,7.2,89,0.00,,,0.00,TxWx,2013-03-05 07:27:00,
2013-03-05 01:32:00,32.2,28.0,30.12,ENE,73,2.7,3.0,89,0.00,,,0.00,TxWx,2013-03-05 07:32:00,
2013-03-05 01:37:00,32.1,28.0,30.12,ENE,75,5.1,5.1,89,0.00,,,0.00,TxWx,2013-03-05 07:37:00,
2013-03-05 01:42:00,32.1,28.0,30.11,ENE,68,5.1,5.7,89,0.00,,,0.00,TxWx,2013-03-05 07:42:00,
2013-03-05 01:47:00,32.0,28.0,30.11,NE,50,8.4,8.4,89,0.00,,,0.00,TxWx,2013-03-05 07:47:00,
2013-03-05 01:53:00,32.0,28.0,30.11,ENE,70,6.9,6.9,89,0.00,,,0.00,TxWx,2013-03-05 07:53:00,
2013-03-05 01:58:00,32.0,28.0,30.10,East,84,7.2,7.2,90,0.00,,,0.00,TxWx,2013-03-05 07:58:00,
2013-03-05 02:03:00,31.9,28.0,30.10,East,92,8.4,8.4,90,0.00,,,0.00,TxWx,2013-03-05 08:03:00,
2013-03-05 02:08:00,31.9,28.0,30.10,East,92,3.0,3.3,90,0.00,,,0.00,TxWx,2013-03-05 08:08:00,
2013-03-05 02:14:00,31.9,28.0,30.10,ENE,67,11.4,11.4,90,0.00,,,0.00,TxWx,2013-03-05 08:14:00,
2013-03-05 02:19:00,31.9,28.0,30.09,East,100,7.5,11.1,90,0.00,,,0.00,TxWx,2013-03-05 08:19:00,
2013-03-05 02:24:00,32.0,28.0,30.09,ENE,75,9.6,9.6,90,0.00,,,0.00,TxWx,2013-03-05 08:24:00,
2013-03-05 02:29:00,32.0,28.0,30.09,ENE,57,2.4,2.7,90,0.00,,,0.00,TxWx,2013-03-05 08:29:00,
2013-03-05 02:35:00,32.0,28.0,30.09,ENE,72,7.2,7.8,90,0.00,,,0.00,TxWx,2013-03-05 08:35:00,
2013-03-05 02:40:00,32.1,28.0,30.09,NE,54,5.1,5.1,90,0.00,,,0.00,TxWx,2013-03-05 08:40:00,
2013-03-05 02:45:00,32.0,28.0,30.08,ENE,76,3.9,4.2,90,0.00,,,0.00,TxWx,2013-03-05 08:45:00,
2013-03-05 02:50:00,32.0,28.0,30.08,ENE,78,6.0,6.6,90,0.00,,,0.00,TxWx,2013-03-05 08:50:00,
2013-03-05 02:55:00,32.0,28.0,30.08,ESE,107,2.4,2.4,90,0.00,,,0.00,TxWx,2013-03-05 08:55:00,
2013-03-05 03:01:00,32.0,28.0,30.08,East,98,4.2,5.1,90,0.00,,,0.00,TxWx,2013-03-05 09:01:00,
2013-03-05 03:06:00,32.0,28.0,30.08,East,90,5.7,6.6,90,0.00,,,0.00,TxWx,2013-03-05 09:06:00,
2013-03-05 03:11:00,32.0,28.0,30.07,ENE,70,4.5,4.8,90,0.00,,,0.00,TxWx,2013-03-05 09:11:00,
2013-03-05 03:16:00,32.0,28.0,30.07,East,85,8.4,8.7,90,0.00,,,0.00,TxWx,2013-03-05 09:16:00,
2013-03-05 03:21:00,32.0,28.0,30.07,East,83,5.7,5.7,90,0.00,,,0.00,TxWx,2013-03-05 09:21:00,
2013-03-05 03:27:00,32.1,28.0,30.07,ENE,68,3.6,4.2,90,0.00,,,0.00,TxWx,2013-03-05 09:27:00,
2013-03-05 03:32:00,32.1,29.0,30.07,East,80,4.5,6.0,91,0.00,,,0.00,TxWx,2013-03-05 09:32:00,
2013-03-05 03:37:00,32.1,29.0,30.07,East,84,9.3,9.3,91,0.00,,,0.00,TxWx,2013-03-05 09:37:00,
2013-03-05 03:42:00,32.1,28.0,30.07,NE,54,3.9,4.5,90,0.00,,,0.00,TxWx,2013-03-05 09:42:00,
2013-03-05 03:48:00,32.2,28.0,30.07,ENE,76,6.0,6.6,90,0.00,,,0.00,TxWx,2013-03-05 09:48:00,
2013-03-05 03:53:00,32.2,28.0,30.07,NE,53,3.3,3.3,90,0.00,,,0.00,TxWx,2013-03-05 09:53:00,
2013-03-05 03:58:00,32.2,28.0,30.07,ENE,71,5.4,5.4,90,0.00,,,0.00,TxWx,2013-03-05 09:58:00,
2013-03-05 04:03:00,32.2,28.0,30.06,ENE,70,6.6,6.6,90,0.00,,,0.00,TxWx,2013-03-05 10:03:00,
2013-03-05 04:08:00,32.2,28.0,30.06,ENE,78,17.1,17.1,90,0.00,,,0.00,TxWx,2013-03-05 10:08:00,
2013-03-05 04:13:00,32.2,28.0,30.06,East,89,5.4,7.2,90,0.00,,,0.00,TxWx,2013-03-05 10:13:00,
2013-03-05 04:19:00,32.2,28.0,30.06,ENE,64,7.2,7.8,90,0.00,,,0.00,TxWx,2013-03-05 10:19:00,
2013-03-05 04:25:00,32.2,28.0,30.06,ENE,69,10.5,10.5,90,0.00,,,0.00,TxWx,2013-03-05 10:25:00,
2013-03-05 04:30:00,32.1,28.0,30.06,ESE,105,5.4,5.7,89,0.00,,,0.00,TxWx,2013-03-05 10:30:00,
2013-03-05 04:36:00,32.1,28.0,30.05,ENE,77,15.0,15.0,89,0.00,,,0.00,TxWx,2013-03-05 10:36:00,
2013-03-05 04:41:00,32.1,28.0,30.05,ENE,63,5.7,7.2,88,0.00,,,0.00,TxWx,2013-03-05 10:41:00,
2013-03-05 04:47:00,32.2,28.0,30.05,East,91,5.4,6.9,88,0.00,,,0.00,TxWx,2013-03-05 10:47:00,
2013-03-05 04:52:00,32.2,28.0,30.05,East,89,6.3,6.3,87,0.00,,,0.00,TxWx,2013-03-05 10:52:00,
2013-03-05 04:58:00,32.2,28.0,30.05,ENE,73,3.9,6.6,87,0.00,,,0.00,TxWx,2013-03-05 10:58:00,
2013-03-05 05:03:00,32.2,27.0,30.05,ENE,69,6.9,6.9,87,0.00,,,0.00,TxWx,2013-03-05 11:03:00,
2013-03-05 05:09:00,32.2,27.0,30.05,ENE,59,3.9,4.5,87,0.00,,,0.00,TxWx,2013-03-05 11:09:00,
2013-03-05 05:14:00,32.2,27.0,30.05,East,84,7.8,9.6,86,0.00,,,0.00,TxWx,2013-03-05 11:14:00,
2013-03-05 05:19:00,32.3,27.0,30.05,East,79,9.3,10.5,86,0.00,,,0.00,TxWx,2013-03-05 11:19:00,
2013-03-05 05:24:00,32.4,27.0,30.05,ENE,74,5.4,5.4,86,0.00,,,0.00,TxWx,2013-03-05 11:24:00,
2013-03-05 05:29:00,32.4,27.0,30.05,ESE,104,3.3,4.2,86,0.00,,,0.00,TxWx,2013-03-05 11:29:00,
2013-03-05 05:35:00,32.4,27.0,30.05,East,100,3.9,3.9,86,0.00,,,0.00,TxWx,2013-03-05 11:35:00,
2013-03-05 05:40:00,32.4,27.0,30.05,ENE,75,15.0,17.1,85,0.00,,,0.00,TxWx,2013-03-05 11:40:00,
2013-03-05 05:45:00,32.4,27.0,30.04,ENE,60,6.0,6.0,85,0.00,,,0.00,TxWx,2013-03-05 11:45:00,
2013-03-05 05:51:00,32.4,27.0,30.04,ENE,67,5.7,6.3,85,0.00,,,0.00,TxWx,2013-03-05 11:51:00,
2013-03-05 05:56:00,32.4,27.0,30.04,ENE,73,14.7,14.7,85,0.00,,,0.00,TxWx,2013-03-05 11:56:00,
2013-03-05 06:01:00,32.4,27.0,30.04,East,98,7.2,8.7,85,0.00,,,0.00,TxWx,2013-03-05 12:01:00,
2013-03-05 06:06:00,32.4,27.0,30.04,East,87,8.1,11.7,85,0.00,,,0.00,TxWx,2013-03-05 12:06:00,
2013-03-05 06:12:00,32.5,27.0,30.04,East,79,6.3,6.9,85,0.00,,,0.00,TxWx,2013-03-05 12:12:00,
2013-03-05 06:17:00,32.5,27.0,30.04,ESE,102,6.6,7.5,85,0.00,,,0.00,TxWx,2013-03-05 12:17:00,
2013-03-05 06:22:00,32.5,28.0,30.04,ENE,76,9.3,9.3,85,0.00,,,0.00,TxWx,2013-03-05 12:22:00,
2013-03-05 06:27:00,32.5,27.0,30.04,East,81,8.1,8.1,85,0.00,,,0.00,TxWx,2013-03-05 12:27:00,
2013-03-05 06:32:00,32.4,27.0,30.04,East,79,12.3,12.3,85,0.00,,,0.00,TxWx,2013-03-05 12:32:00,
2013-03-05 06:37:00,32.4,27.0,30.03,East,83,9.6,9.6,85,0.00,,,0.00,TxWx,2013-03-05 12:37:00,
2013-03-05 06:42:00,32.2,27.0,30.03,ENE,72,12.3,12.3,86,0.00,,,0.00,TxWx,2013-03-05 12:42:00,
2013-03-05 06:48:00,32.1,27.0,30.03,East,84,6.9,7.5,87,0.00,,,0.00,TxWx,2013-03-05 12:48:00,
2013-03-05 06:53:00,31.9,28.0,30.03,ENE,59,4.8,4.8,87,0.00,,,0.00,TxWx,2013-03-05 12:53:00,
2013-03-05 06:58:00,31.8,28.0,30.02,ENE,67,5.1,5.7,88,0.00,,,0.00,TxWx,2013-03-05 12:58:00,
2013-03-05 07:03:00,31.7,28.0,30.02,ENE,78,9.0,10.5,89,0.00,,,0.00,TxWx,2013-03-05 13:03:00,
2013-03-05 07:08:00,31.8,28.0,30.02,ESE,120,3.0,3.0,89,0.00,,,0.00,TxWx,2013-03-05 13:08:00,
2013-03-05 07:14:00,31.7,28.0,30.02,East,101,5.1,6.6,90,0.00,,,0.00,TxWx,2013-03-05 13:14:00,
2013-03-05 07:19:00,31.7,28.0,30.02,East,88,8.1,9.6,90,0.00,,,0.00,TxWx,2013-03-05 13:19:00,
2013-03-05 07:24:00,31.8,28.0,30.02,East,79,5.1,5.1,90,0.00,,,0.00,TxWx,2013-03-05 13:24:00,
2013-03-05 07:29:00,31.9,28.0,30.02,East,98,7.5,8.1,89,0.00,,,0.00,TxWx,2013-03-05 13:29:00,
2013-03-05 07:35:00,32.0,28.0,30.02,ENE,66,12.6,12.9,89,0.00,,,0.00,TxWx,2013-03-05 13:35:00,
2013-03-05 07:40:00,32.1,28.0,30.02,East,92,9.6,9.6,89,0.00,,,0.00,TxWx,2013-03-05 13:40:00,
2013-03-05 07:45:00,32.2,28.0,30.02,ESE,107,3.3,4.5,88,0.00,,,0.00,TxWx,2013-03-05 13:45:00,
2013-03-05 07:51:00,32.3,28.0,30.02,East,100,11.4,12.6,88,0.00,,,0.00,TxWx,2013-03-05 13:51:00,
2013-03-05 07:56:00,32.4,28.0,30.02,ENE,65,5.7,6.3,87,0.00,,,0.00,TxWx,2013-03-05 13:56:00,
2013-03-05 08:01:00,32.4,27.0,30.01,East,95,3.9,4.5,87,0.00,,,0.00,TxWx,2013-03-05 14:01:00,
2013-03-05 08:06:00,32.5,28.0,30.01,East,88,12.0,12.0,86,0.00,,,0.00,TxWx,2013-03-05 14:06:00,
2013-03-05 08:11:00,32.6,28.0,30.02,ENE,78,3.6,4.8,86,0.00,,,0.00,TxWx,2013-03-05 14:11:00,
2013-03-05 08:17:00,32.7,28.0,30.01,East,82,11.1,11.1,85,0.00,,,0.00,TxWx,2013-03-05 14:17:00,
2013-03-05 08:22:00,32.8,28.0,30.01,East,98,7.2,7.2,84,0.00,,,0.00,TxWx,2013-03-05 14:22:00,
2013-03-05 08:27:00,32.8,28.0,30.01,ENE,73,15.0,15.0,84,0.00,,,0.00,TxWx,2013-03-05 14:27:00,
2013-03-05 08:32:00,32.9,27.0,30.00,ENE,59,7.2,8.1,83,0.00,,,0.00,TxWx,2013-03-05 14:32:00,
2013-03-05 08:37:00,33.0,27.0,30.00,East,80,7.2,10.5,83,0.00,,,0.00,TxWx,2013-03-05 14:37:00,
2013-03-05 08:42:00,33.2,27.0,30.00,ESE,105,9.0,14.4,82,0.00,,,0.00,TxWx,2013-03-05 14:42:00,
2013-03-05 08:48:00,33.4,27.0,30.01,East,89,6.0,6.6,81,0.00,,,0.00,TxWx,2013-03-05 14:48:00,
2013-03-05 08:53:00,33.4,27.0,30.01,ENE,62,11.4,11.7,81,0.00,,,0.00,TxWx,2013-03-05 14:53:00,
2013-03-05 08:58:00,33.5,27.0,30.00,ENE,67,4.8,4.8,80,0.00,,,0.00,TxWx,2013-03-05 14:58:00,
2013-03-05 09:03:00,33.5,27.0,30.00,ENE,62,9.6,9.6,79,0.00,,,0.00,TxWx,2013-03-05 15:03:00,
2013-03-05 09:08:00,33.5,26.0,30.01,ENE,71,6.3,7.8,79,0.00,,,0.00,TxWx,2013-03-05 15:08:00,
2013-03-05 09:14:00,33.5,26.0,30.01,East,92,6.3,7.8,79,0.00,,,0.00,TxWx,2013-03-05 15:14:00,
2013-03-05 09:19:00,33.3,26.0,30.01,East,91,14.4,14.4,79,0.00,,,0.00,TxWx,2013-03-05 15:19:00,
2013-03-05 09:24:00,33.3,27.0,30.01,East,85,4.2,4.2,80,0.00,,,0.00,TxWx,2013-03-05 15:24:00,
2013-03-05 09:29:00,32.9,27.0,30.01,ENE,78,9.0,9.0,82,0.00,,,0.00,TxWx,2013-03-05 15:29:00,
2013-03-05 09:35:00,32.7,27.0,30.00,ENE,71,6.6,6.6,83,0.00,,,0.00,TxWx,2013-03-05 15:35:00,
2013-03-05 09:40:00,32.8,28.0,30.01,East,92,2.1,2.7,84,0.00,,,0.00,TxWx,2013-03-05 15:40:00,
2013-03-05 09:45:00,32.5,28.0,30.01,East,84,7.5,7.5,84,0.00,,,0.00,TxWx,2013-03-05 15:45:00,
2013-03-05 09:51:00,32.5,28.0,30.00,NE,56,6.3,7.8,85,0.00,,,0.00,TxWx,2013-03-05 15:51:00,
2013-03-05 09:56:00,32.5,28.0,30.00,NE,47,7.2,8.7,85,0.00,,,0.00,TxWx,2013-03-05 15:56:00,
2013-03-05 10:01:00,32.6,28.0,30.00,East,80,4.5,5.7,86,0.00,,,0.00,TxWx,2013-03-05 16:01:00,
2013-03-05 10:06:00,32.4,27.0,30.00,ENE,72,4.5,6.0,86,0.00,,,0.00,TxWx,2013-03-05 16:06:00,
2013-03-05 10:11:00,32.3,27.0,29.99,ESE,111,4.8,4.8,87,0.00,,,0.00,TxWx,2013-03-05 16:11:00,
2013-03-05 10:16:00,32.3,28.0,29.99,NE,56,2.4,2.4,88,0.00,,,0.00,TxWx,2013-03-05 16:16:00,
2013-03-05 10:22:00,32.1,28.0,29.98,SW,220,3.9,5.4,88,0.00,,,0.00,TxWx,2013-03-05 16:22:00,
2013-03-05 10:27:00,32.0,28.0,29.98,ENE,65,6.6,6.6,89,0.00,,,0.00,TxWx,2013-03-05 16:27:00,
2013-03-05 10:32:00,32.1,28.0,29.98,East,87,6.0,6.0,89,0.06,,,0.01,TxWx,2013-03-05 16:32:00,
2013-03-05 10:37:00,31.9,28.0,29.97,East,95,5.7,5.7,89,0.06,,,0.01,TxWx,2013-03-05 16:37:00,
2013-03-05 10:43:00,32.0,28.0,29.98,ESE,107,6.6,9.0,89,0.00,,,0.01,TxWx,2013-03-05 16:43:00,
2013-03-05 10:48:00,31.9,28.0,29.97,East,80,12.3,12.3,89,0.00,,,0.01,TxWx,2013-03-05 16:48:00,
2013-03-05 10:53:00,31.9,28.0,29.97,East,88,10.2,10.5,89,0.00,,,0.01,TxWx,2013-03-05 16:53:00,
2013-03-05 10:58:00,31.9,28.0,29.97,East,95,4.5,4.8,89,0.00,,,0.01,TxWx,2013-03-05 16:58:00,
2013-03-05 11:03:00,31.6,28.0,29.96,ENE,76,7.2,7.2,89,0.00,,,0.01,TxWx,2013-03-05 17:03:00,
2013-03-05 11:08:00,31.4,27.0,29.96,ENE,74,8.1,8.4,90,0.00,,,0.01,TxWx,2013-03-05 17:08:00,
2013-03-05 11:13:00,31.5,28.0,29.96,NE,50,4.2,4.2,91,0.00,,,0.01,TxWx,2013-03-05 17:13:00,
2013-03-05 11:18:00,31.4,28.0,29.96,East,79,7.8,8.7,92,0.00,,,0.01,TxWx,2013-03-05 17:18:00,
2013-03-05 11:23:00,31.6,29.0,29.96,East,91,6.9,6.9,92,0.06,,,0.02,TxWx,2013-03-05 17:23:00,
2013-03-05 11:29:00,31.4,28.0,29.96,East,87,11.1,11.1,92,0.06,,,0.02,TxWx,2013-03-05 17:29:00,
2013-03-05 11:34:00,31.4,28.0,29.96,ENE,75,11.4,11.4,92,0.00,,,0.02,TxWx,2013-03-05 17:34:00,
2013-03-05 11:39:00,31.5,29.0,29.97,ENE,74,4.8,5.7,93,0.00,,,0.02,TxWx,2013-03-05 17:39:00,
2013-03-05 11:44:00,31.5,29.0,29.96,ENE,70,8.4,8.4,93,0.00,,,0.02,TxWx,2013-03-05 17:44:00,
2013-03-05 11:49:00,31.3,28.0,29.96,SW,215,4.2,6.6,93,0.00,,,0.02,TxWx,2013-03-05 17:49:00,
2013-03-05 11:55:00,31.5,28.0,29.96,ENE,70,3.3,3.9,93,0.00,,,0.02,TxWx,2013-03-05 17:55:00,
2013-03-05 12:00:00,31.4,28.0,29.96,ENE,72,7.5,7.5,93,0.00,,,0.02,TxWx,2013-03-05 18:00:00,
2013-03-05 12:05:00,31.7,29.0,29.96,ENE,70,1.8,1.8,93,0.00,,,0.02,TxWx,2013-03-05 18:05:00,
2013-03-05 12:10:00,31.4,28.0,29.95,NE,54,6.9,6.9,93,0.06,,,0.03,TxWx,2013-03-05 18:10:00,
2013-03-05 12:15:00,31.5,28.0,29.95,ENE,58,3.0,3.0,94,0.06,,,0.03,TxWx,2013-03-05 18:15:00,
2013-03-05 12:20:00,31.4,28.0,29.95,ENE,78,9.9,9.9,94,0.00,,,0.03,TxWx,2013-03-05 18:20:00,
2013-03-05 12:26:00,31.6,29.0,29.95,East,88,2.1,2.7,94,0.00,,,0.03,TxWx,2013-03-05 18:26:00,
2013-03-05 12:31:00,31.7,29.0,29.95,NNW,330,4.2,4.2,94,0.06,,,0.04,TxWx,2013-03-05 18:31:00,
2013-03-05 12:36:00,31.6,29.0,29.94,NE,46,4.2,4.8,94,0.06,,,0.04,TxWx,2013-03-05 18:36:00,
2013-03-05 12:42:00,31.6,29.0,29.94,NE,53,4.2,4.5,94,0.06,,,0.05,TxWx,2013-03-05 18:42:00,
2013-03-05 12:47:00,31.7,29.0,29.93,East,83,2.1,2.1,94,0.06,,,0.05,TxWx,2013-03-05 18:47:00,
2013-03-05 12:52:00,31.4,28.0,29.93,East,84,2.7,3.3,94,0.00,,,0.05,TxWx,2013-03-05 18:52:00,
2013-03-05 12:57:00,31.4,29.0,29.93,ENE,68,3.6,3.6,95,0.00,,,0.05,TxWx,2013-03-05 18:57:00,
2013-03-05 13:02:00,31.4,29.0,29.93,East,87,3.6,3.6,95,0.00,,,0.05,TxWx,2013-03-05 19:02:00,
2013-03-05 13:08:00,31.6,30.0,29.93,ENE,60,6.0,6.0,95,0.00,,,0.06,TxWx,2013-03-05 19:08:00,
2013-03-05 13:13:00,31.5,30.0,29.92,ENE,78,3.9,4.5,95,0.06,,,0.06,TxWx,2013-03-05 19:13:00,
2013-03-05 13:18:00,31.5,30.0,29.92,ENE,73,2.4,2.7,95,0.06,,,0.06,TxWx,2013-03-05 19:18:00,
2013-03-05 13:23:00,31.6,30.0,29.92,SSW,198,2.7,2.7,95,0.00,,,0.06,TxWx,2013-03-05 19:23:00,
2013-03-05 13:28:00,31.6,30.0,29.92,ENE,59,9.9,9.9,95,0.00,,,0.07,TxWx,2013-03-05 19:28:00,
2013-03-05 13:33:00,31.7,30.0,29.91,NE,56,6.0,6.0,95,0.06,,,0.07,TxWx,2013-03-05 19:33:00,
2013-03-05 13:38:00,31.7,30.0,29.91,East,92,2.4,2.7,95,0.06,,,0.07,TxWx,2013-03-05 19:38:00,
2013-03-05 13:43:00,31.6,30.0,29.91,SW,216,2.4,2.4,95,0.00,,,0.07,TxWx,2013-03-05 19:43:00,
2013-03-05 13:48:00,31.5,30.0,29.91,NE,50,4.5,4.8,95,0.00,,,0.07,TxWx,2013-03-05 19:48:00,
2013-03-05 13:54:00,31.6,30.0,29.91,NE,46,3.0,3.0,96,0.00,,,0.08,TxWx,2013-03-05 19:54:00,
2013-03-05 13:59:00,31.5,30.0,29.91,East,98,5.7,6.0,96,0.00,,,0.08,TxWx,2013-03-05 19:59:00,
2013-03-05 14:04:00,31.5,30.0,29.91,SSW,209,2.7,3.0,96,0.06,,,0.08,TxWx,2013-03-05 20:04:00,
2013-03-05 14:09:00,31.6,30.0,29.91,NE,46,4.8,5.4,96,0.06,,,0.08,TxWx,2013-03-05 20:09:00,
2013-03-05 14:14:00,31.6,30.0,29.91,ENE,67,5.4,6.3,96,0.00,,,0.08,TxWx,2013-03-05 20:14:00,
2013-03-05 14:20:00,31.5,30.0,29.91,NE,47,3.3,3.6,96,0.00,,,0.09,TxWx,2013-03-05 20:20:00,
2013-03-05 14:25:00,31.5,29.0,29.91,NE,49,5.1,5.1,96,0.06,,,0.09,TxWx,2013-03-05 20:25:00,
2013-03-05 14:30:00,31.5,30.0,29.91,NE,46,3.3,3.3,96,0.00,,,0.09,TxWx,2013-03-05 20:30:00,
2013-03-05 14:35:00,31.5,30.0,29.91,NE,51,2.7,3.0,96,0.00,,,0.09,TxWx,2013-03-05 20:35:00,
2013-03-05 14:40:00,31.6,30.0,29.91,South,185,1.5,1.5,96,0.00,,,0.09,TxWx,2013-03-05 20:40:00,
2013-03-05 14:46:00,31.4,29.0,29.91,South,190,3.6,4.5,96,0.00,,,0.10,TxWx,2013-03-05 20:46:00,
2013-03-05 14:51:00,31.4,29.0,29.91,SSW,197,4.8,4.8,96,0.06,,,0.10,TxWx,2013-03-05 20:51:00,
2013-03-05 14:56:00,31.4,29.0,29.91,NE,52,1.8,2.4,96,0.06,,,0.10,TxWx,2013-03-05 20:56:00,
2013-03-05 15:01:00,31.3,29.0,29.92,SSW,206,2.4,2.4,96,0.00,,,0.10,TxWx,2013-03-05 21:01:00,
2013-03-05 15:06:00,31.3,29.0,29.92,SSW,213,4.2,4.8,96,0.00,,,0.10,TxWx,2013-03-05 21:06:00,
2013-03-05 15:11:00,31.3,29.0,29.92,SSW,199,3.3,3.6,96,0.00,,,0.10,TxWx,2013-03-05 21:11:00,
2013-03-05 15:16:00,31.1,29.0,29.92,SSW,207,3.0,3.3,96,0.00,,,0.10,TxWx,2013-03-05 21:16:00,
2013-03-05 15:21:00,31.0,29.0,29.92,South,182,2.4,2.7,96,0.00,,,0.10,TxWx,2013-03-05 21:21:00,
2013-03-05 15:27:00,31.0,29.0,29.92,South,191,3.9,4.5,97,0.00,,,0.11,TxWx,2013-03-05 21:27:00,
2013-03-05 15:32:00,30.9,29.0,29.92,SSW,193,4.2,4.2,97,0.06,,,0.11,TxWx,2013-03-05 21:32:00,
2013-03-05 15:37:00,31.0,29.0,29.92,SSW,207,1.5,1.8,97,0.06,,,0.11,TxWx,2013-03-05 21:37:00,
2013-03-05 15:42:00,30.9,29.0,29.92,SSW,205,0.9,1.2,97,0.00,,,0.11,TxWx,2013-03-05 21:42:00,
2013-03-05 15:47:00,31.0,29.0,29.92,SSW,211,2.4,2.7,97,0.00,,,0.11,TxWx,2013-03-05 21:47:00,
2013-03-05 15:52:00,30.9,29.0,29.92,SW,219,3.9,3.9,97,0.00,,,0.11,TxWx,2013-03-05 21:52:00,
2013-03-05 15:57:00,30.8,29.0,29.93,SW,215,6.3,6.3,97,0.00,,,0.11,TxWx,2013-03-05 21:57:00,
2013-03-05 16:03:00,30.8,29.0,29.93,SSW,195,3.3,3.6,97,0.00,,,0.11,TxWx,2013-03-05 22:03:00,
2013-03-05 16:08:00,30.7,29.0,29.93,SSW,211,4.5,4.8,97,0.00,,,0.11,TxWx,2013-03-05 22:08:00,
2013-03-05 16:13:00,30.7,29.0,29.93,SW,218,2.1,2.4,97,0.00,,,0.11,TxWx,2013-03-05 22:13:00,
2013-03-05 16:18:00,30.7,29.0,29.93,SSW,204,4.8,4.8,97,0.00,,,0.11,TxWx,2013-03-05 22:18:00,
2013-03-05 16:23:00,30.5,29.0,29.93,SSW,205,3.9,4.5,97,0.00,,,0.11,TxWx,2013-03-05 22:23:00,
2013-03-05 16:29:00,30.4,28.0,29.93,SSW,197,7.2,7.2,97,0.00,,,0.11,TxWx,2013-03-05 22:29:00,
2013-03-05 16:34:00,30.2,28.0,29.93,SSW,206,5.4,5.4,97,0.00,,,0.11,TxWx,2013-03-05 22:34:00,
2013-03-05 16:39:00,30.2,28.0,29.93,SSW,205,4.2,4.5,97,0.00,,,0.11,TxWx,2013-03-05 22:39:00,
2013-03-05 16:44:00,30.2,28.0,29.94,SSW,198,2.7,3.0,97,0.00,,,0.11,TxWx,2013-03-05 22:44:00,
2013-03-05 16:49:00,30.2,28.0,29.94,SSW,192,3.3,3.9,97,0.00,,,0.11,TxWx,2013-03-05 22:49:00,
2013-03-05 16:54:00,30.2,28.0,29.94,SSW,195,5.4,5.4,97,0.00,,,0.11,TxWx,2013-03-05 22:54:00,
2013-03-05 17:00:00,30.0,28.0,29.94,SW,223,6.0,6.0,97,0.00,,,0.11,TxWx,2013-03-05 23:00:00,
2013-03-05 17:05:00,29.9,28.0,29.94,SSW,201,7.5,7.8,97,0.00,,,0.11,TxWx,2013-03-05 23:05:00,
2013-03-05 17:10:00,29.7,28.0,29.94,SSW,205,5.7,7.2,97,0.00,,,0.11,TxWx,2013-03-05 23:10:00,
2013-03-05 17:15:00,29.4,27.0,29.94,SSW,200,7.8,8.4,97,0.00,,,0.11,TxWx,2013-03-05 23:15:00,
2013-03-05 17:20:00,29.3,27.0,29.95,SSW,204,8.7,9.6,97,0.00,,,0.11,TxWx,2013-03-05 23:20:00,
2013-03-05 17:25:00,29.2,27.0,29.95,SSW,207,9.6,9.6,97,0.00,,,0.11,TxWx,2013-03-05 23:25:00,
2013-03-05 17:30:00,29.1,27.0,29.95,SSW,199,7.8,9.3,97,0.00,,,0.11,TxWx,2013-03-05 23:30:00,
2013-03-05 17:35:00,29.0,27.0,29.95,SSW,203,9.6,10.5,97,0.00,,,0.11,TxWx,2013-03-05 23:35:00,
2013-03-05 17:40:00,28.8,27.0,29.96,SSW,196,7.5,8.1,97,0.00,,,0.11,TxWx,2013-03-05 23:40:00,
2013-03-05 17:45:00,28.7,27.0,29.96,SSW,201,6.6,7.5,97,0.00,,,0.11,TxWx,2013-03-05 23:45:00,
2013-03-05 17:51:00,28.6,27.0,29.96,SSW,208,7.8,7.8,98,0.00,,,0.11,TxWx,2013-03-05 23:51:00,
2013-03-05 17:56:00,28.5,27.0,29.96,SSW,208,7.5,7.8,98,0.00,,,0.11,TxWx,2013-03-05 23:56:00,
2013-03-05 18:01:00,28.6,27.0,29.96,SSW,205,6.9,6.9,98,0.00,,,0.11,TxWx,2013-03-06 00:01:00,
2013-03-05 18:06:00,28.6,27.0,29.96,SW,222,8.1,8.1,98,0.00,,,0.11,TxWx,2013-03-06 00:06:00,
2013-03-05 18:11:00,28.7,27.0,29.96,SW,223,6.0,6.0,98,0.00,,,0.11,TxWx,2013-03-06 00:11:00,
2013-03-05 18:17:00,28.8,27.0,29.96,SSW,212,6.0,7.8,98,0.00,,,0.11,TxWx,2013-03-06 00:17:00,
2013-03-05 18:22:00,28.8,27.0,29.97,SSW,211,8.4,9.0,98,0.00,,,0.11,TxWx,2013-03-06 00:22:00,
2013-03-05 18:27:00,28.8,27.0,29.97,SW,219,6.3,6.6,98,0.00,,,0.11,TxWx,2013-03-06 00:27:00,
2013-03-05 18:32:00,28.9,27.0,29.97,SSW,212,6.6,6.9,98,0.00,,,0.11,TxWx,2013-03-06 00:32:00,
2013-03-05 18:38:00,28.9,27.0,29.97,SSW,210,9.0,9.0,98,0.00,,,0.11,TxWx,2013-03-06 00:38:00,
2013-03-05 18:43:00,28.9,27.0,29.97,SSW,210,9.3,9.9,98,0.00,,,0.11,TxWx,2013-03-06 00:43:00,
2013-03-05 18:48:00,29.0,27.0,29.97,SW,220,10.2,10.2,98,0.00,,,0.11,TxWx,2013-03-06 00:48:00,
2013-03-05 18:53:00,29.0,27.0,29.97,SSW,204,7.2,7.2,98,0.00,,,0.11,TxWx,2013-03-06 00:53:00,
2013-03-05 18:59:00,29.1,27.0,29.97,SSW,207,10.8,10.8,98,0.00,,,0.11,TxWx,2013-03-06 00:59:00,
2013-03-05 19:04:00,29.2,27.0,29.97,SSW,201,6.9,7.8,98,0.00,,,0.11,TxWx,2013-03-06 01:04:00,
2013-03-05 19:09:00,29.3,27.0,29.97,SSW,200,8.1,8.1,98,0.00,,,0.11,TxWx,2013-03-06 01:09:00,
2013-03-05 19:14:00,29.4,27.0,29.97,SW,215,7.8,8.4,98,0.00,,,0.11,TxWx,2013-03-06 01:14:00,
2013-03-05 19:19:00,29.5,27.0,29.97,SSW,205,5.4,6.0,98,0.00,,,0.11,TxWx,2013-03-06 01:19:00,
2013-03-05 19:24:00,29.6,28.0,29.97,SSW,197,10.2,10.2,98,0.00,,,0.11,TxWx,2013-03-06 01:24:00,
2013-03-05 19:29:00,29.8,29.0,29.97,SSW,192,8.7,8.7,98,0.00,,,0.11,TxWx,2013-03-06 01:29:00,
2013-03-05 19:35:00,29.9,29.0,29.98,SSW,201,13.5,13.5,98,0.00,,,0.11,TxWx,2013-03-06 01:35:00,
2013-03-05 19:40:00,29.9,29.0,29.98,SSW,198,14.1,14.1,98,0.00,,,0.11,TxWx,2013-03-06 01:40:00,
2013-03-05 19:45:00,29.9,29.0,29.98,South,184,10.2,10.2,98,0.00,,,0.11,TxWx,2013-03-06 01:45:00,
2013-03-05 19:50:00,30.0,29.0,29.98,South,190,9.3,9.3,98,0.00,,,0.11,TxWx,2013-03-06 01:50:00,
2013-03-05 19:55:00,30.0,29.0,29.99,SSW,199,8.4,10.5,98,0.00,,,0.11,TxWx,2013-03-06 01:55:00,
2013-03-05 20:00:00,30.0,29.0,29.99,South,179,7.5,9.3,98,0.00,,,0.11,TxWx,2013-03-06 02:00:00,
2013-03-05 20:06:00,30.0,29.0,29.99,South,177,10.8,12.3,98,0.00,,,0.11,TxWx,2013-03-06 02:06:00,
2013-03-05 20:11:00,30.1,29.0,29.99,South,183,9.0,9.0,98,0.00,,,0.11,TxWx,2013-03-06 02:11:00,
2013-03-05 20:16:00,30.2,29.0,29.99,South,190,10.5,10.5,98,0.00,,,0.11,TxWx,2013-03-06 02:16:00,
2013-03-05 20:21:00,30.3,29.0,29.99,South,188,9.0,9.6,98,0.00,,,0.11,TxWx,2013-03-06 02:21:00,
2013-03-05 20:26:00,30.3,29.0,30.00,South,188,12.3,13.8,98,0.00,,,0.11,TxWx,2013-03-06 02:26:00,
2013-03-05 20:32:00,30.3,29.0,30.00,South,177,12.6,13.5,98,0.00,,,0.11,TxWx,2013-03-06 02:32:00,
2013-03-05 20:37:00,30.3,29.0,30.00,SSW,193,14.4,14.4,98,0.00,,,0.11,TxWx,2013-03-06 02:37:00,
2013-03-05 20:42:00,30.3,29.0,30.00,South,182,10.2,10.8,98,0.00,,,0.11,TxWx,2013-03-06 02:42:00,
2013-03-05 20:48:00,30.3,29.0,30.00,South,187,9.3,9.3,98,0.00,,,0.11,TxWx,2013-03-06 02:48:00,
2013-03-05 20:53:00,30.2,29.0,30.00,SSW,198,17.4,17.4,98,0.00,,,0.11,TxWx,2013-03-06 02:53:00,
2013-03-05 20:58:00,30.2,29.0,30.01,SSW,194,11.1,11.1,98,0.00,,,0.11,TxWx,2013-03-06 02:58:00,
2013-03-05 21:03:00,30.2,29.0,30.01,South,186,13.5,13.5,98,0.00,,,0.11,TxWx,2013-03-06 03:03:00,
2013-03-05 21:08:00,30.2,29.0,30.01,SSW,195,13.8,14.7,98,0.00,,,0.11,TxWx,2013-03-06 03:08:00,
2013-03-05 21:14:00,30.3,29.0,30.01,South,188,13.5,13.5,98,0.00,,,0.11,TxWx,2013-03-06 03:14:00,
2013-03-05 21:19:00,30.3,29.0,30.01,South,190,16.5,17.7,98,0.00,,,0.11,TxWx,2013-03-06 03:19:00,
2013-03-05 21:24:00,30.2,29.0,30.02,SSW,193,15.3,15.3,98,0.00,,,0.11,TxWx,2013-03-06 03:24:00,
2013-03-05 21:29:00,30.2,29.0,30.02,SSW,195,10.8,10.8,98,0.00,,,0.11,TxWx,2013-03-06 03:29:00,
2013-03-05 21:34:00,30.2,29.0,30.02,South,186,9.3,9.6,98,0.00,,,0.11,TxWx,2013-03-06 03:34:00,
2013-03-05 21:40:00,30.3,29.0,30.03,SSW,192,20.4,20.4,99,0.00,,,0.11,TxWx,2013-03-06 03:40:00,
2013-03-05 21:45:00,30.3,29.0,30.03,South,174,14.7,15.9,99,0.00,,,0.11,TxWx,2013-03-06 03:45:00,
2013-03-05 21:50:00,30.3,29.0,30.03,SSW,193,14.1,14.1,99,0.00,,,0.11,TxWx,2013-03-06 03:50:00,
2013-03-05 21:55:00,30.2,29.0,30.03,South,185,14.7,14.7,99,0.00,,,0.11,TxWx,2013-03-06 03:55:00,
2013-03-05 22:00:00,30.1,29.0,30.03,South,190,17.1,18.3,99,0.00,,,0.11,TxWx,2013-03-06 04:00:00,
2013-03-05 22:05:00,30.1,29.0,30.03,South,182,12.9,15.3,99,0.00,,,0.11,TxWx,2013-03-06 04:05:00,
2013-03-05 22:11:00,30.1,29.0,30.04,South,183,9.0,10.2,99,0.00,,,0.11,TxWx,2013-03-06 04:11:00,
2013-03-05 22:16:00,30.1,29.0,30.04,SSW,192,11.1,11.1,99,0.00,,,0.11,TxWx,2013-03-06 04:16:00,
2013-03-05 22:21:00,30.2,29.0,30.04,South,190,14.1,14.1,99,0.00,,,0.11,TxWx,2013-03-06 04:21:00,
2013-03-05 22:26:00,30.1,29.0,30.04,SSW,195,12.9,12.9,99,0.00,,,0.11,TxWx,2013-03-06 04:26:00,
2013-03-05 22:31:00,30.1,29.0,30.05,SSW,197,15.9,15.9,99,0.00,,,0.11,TxWx,2013-03-06 04:31:00,
2013-03-05 22:36:00,30.0,29.0,30.05,South,183,20.4,20.4,99,0.00,,,0.11,TxWx,2013-03-06 04:36:00,
2013-03-05 22:41:00,30.0,29.0,30.05,South,188,13.5,15.3,99,0.00,,,0.11,TxWx,2013-03-06 04:41:00,
2013-03-05 22:47:00,29.8,29.0,30.05,SSW,192,19.5,19.5,99,0.00,,,0.11,TxWx,2013-03-06 04:47:00,
2013-03-05 22:52:00,29.9,29.0,30.05,South,183,12.3,12.3,99,0.00,,,0.11,TxWx,2013-03-06 04:52:00,
2013-03-05 22:57:00,29.9,29.0,30.05,South,184,10.8,11.4,99,0.00,,,0.11,TxWx,2013-03-06 04:57:00,
2013-03-05 23:00:00,29.9,29.0,30.05,South,188,13.2,13.2,99,0.00,,,0.11,TxWx,2013-03-06 05:00:00,
2013-03-05 23:01:00,29.8,29.0,30.05,SSW,195,18.3,22.5,99,0.00,,,0.11,TxWx,2013-03-06 05:01:00,
2013-03-05 23:02:00,29.8,29.0,30.05,SSW,193,13.2,13.2,99,0.00,,,0.11,TxWx,2013-03-06 05:02:00,
2013-03-05 23:07:00,29.8,29.0,30.05,South,185,19.2,19.5,99,0.00,,,0.11,TxWx,2013-03-06 05:07:00,
2013-03-05 23:12:00,29.8,29.0,30.06,South,176,10.8,12.3,99,0.00,,,0.11,TxWx,2013-03-06 05:12:00,
2013-03-05 23:18:00,29.8,29.0,30.06,South,185,13.2,13.5,99,0.00,,,0.11,TxWx,2013-03-06 05:18:00,
2013-03-05 23:23:00,29.9,29.0,30.06,South,184,10.2,10.2,99,0.00,,,0.11,TxWx,2013-03-06 05:23:00,
2013-03-05 23:28:00,29.9,29.0,30.07,South,181,15.0,15.3,99,0.00,,,0.11,TxWx,2013-03-06 05:28:00,
2013-03-05 23:33:00,29.9,29.0,30.07,South,189,12.6,12.6,99,0.00,,,0.11,TxWx,2013-03-06 05:33:00,
2013-03-05 23:38:00,29.9,29.0,30.07,South,190,13.2,13.8,99,0.00,,,0.11,TxWx,2013-03-06 05:38:00,
2013-03-05 23:44:00,29.9,29.0,30.07,South,182,15.0,16.8,99,0.00,,,0.11,TxWx,2013-03-06 05:44:00,
2013-03-05 23:49:00,29.9,29.0,30.07,South,182,13.5,14.7,99,0.00,,,0.11,TxWx,2013-03-06 05:49:00,
2013-03-05 23:54:00,29.9,29.0,30.07,ESE,121,9.3,11.7,99,0.00,,,0.11,TxWx,2013-03-06 05:54:00,
2013-03-05 23:59:00,29.9,29.0,30.07,South,173,7.8,9.3,99,0.00,,,0.11,TxWx,2013-03-06 05:59:00,